Tracking 32991 objects as of 22-Jan-2026
HD Live streaming from Space Station
objects crossing your sky now

INTELSAT 901

Track INTELSAT 901 now!
INTELSAT 901 is classified as:


NORAD ID: 26824
Int'l Code: 2001-024A
Perigee: 36,201.7 km
Apogee: 36,210.8 km
Inclination: 0.9 °
Period: 1,457.2 minutes
Semi major axis: 42577 km
RCS: 15.9919 m2 (large)
Launch date: June 9, 2001
Source: International Telecommunications Satellite Organization (ITSO)
Launch site: FRENCH GUIANA (FRGUI)

INTELSAT 901 is a 4.7 ton (with fuel) geosynchronous communications spacecraft providing voice and video services to Europe and the Americas through 44 C-band and 12 Ku-band transponders.
Your satellite tracking list
Your tracking list is empty




NASA's NSSDC Master Catalog

Two Line Element Set (TLE):
1 26824U 01024A   26022.40667988  .00000046  00000-0  00000+0 0  9998
2 26824   0.8745  86.9059 0001063 333.5682  69.9424  0.98818186 21483
Source of the keplerian elements: AFSPC